{"data":{"norad_id":57064,"intl_designator":"2023-088S","name":"STARLINK-5822","alt_names":[],"object_type":"PAYLOAD","status":"ACTIVE","operator":null,"country":"US","launch_date":"2023-06-22","launch_site_code":"AFWTR","launch_vehicle":null,"mission":null,"orbit_class":"UNKNOWN","rcs_meters":null,"size_class":null,"mass_kg":null,"dimensions":null,"purposes":["comms"],"wikipedia_slug":null,"has_3d_model":false,"image_url":null,"decayed_at":null,"tle_current":{"epoch":"2026-09-20T22:20:12.266592Z","epoch_age_seconds":83760,"freshness":"FRESH","line1":"1 57064U 23088S   26263.93069753  .00000033  00000+0  10718-4 0  9990","line2":"2 57064  43.0006  87.8937 0002051 233.2915 126.7748 15.27576540179219","mean_motion":15.2757654,"eccentricity":0.0002051,"inclination_deg":43.0006,"raan_deg":87.8937,"arg_perigee_deg":233.2915,"mean_anomaly_deg":126.7748,"bstar":1.0718e-5,"rev_number":17921,"period_min":94.266962230253,"perigee_km":481.6522251507,"apogee_km":484.46668793717,"semimajor_km":6861.1964565439,"source":"CELESTRAK","updated_at":"2026-09-21T09:00:33.551174Z"}}}